CAPE
1098 1119 1066 1786 2040 2296 2352 2328 2147 2130 2054 2021 1775 1401 1122 1085 1124 1275 1415 1494 1402 1408 1712 1113 2256 2324 1376 1060 1208 1038 885 389 204 438 420 440 559 718 845 1123 1084 951 983
315 914 1545 1340 1723 2311 2445 2394 2327 2369 2344 2007 2227 1639 1542 1055 975 1343 1619 1815 1923 1554 1289 1261 1219 1924 2102 2204 2046 1618 746 457 141 304 166 145 204 261 407 686 617 581 712
29 391 1207 1899 1438 1857 2780 2771 2820 2749 2694 2574 1932 1677 1555 1351 1043 1064 1204 1550 1632 1706 1581 1300 1458 1911 2030 2871 2296 2202 1657 659 550 824 93 169 138 194 672 904 1061 979 964
2 200 841 1829 1898 1433 2318 2886 3069 3079 2575 3073 2416 2867 1769 1564 1251 1257 1008 1155 1412 1429 1541 1799 2148 3022 2761 2901 2009 1860 2222 2944 2205 2304 1608 1396 1111 844 593 1282 1125 1456 1766
0 182 446 1454 2095 1830 2162 2337 2782 2831 2954 2929 2944 2533 2500 1779 1605 1357 2093 1923 2067 1428 1339 1822 2036 2266 2781 2599 2509 2800 2526 2690 2676 2492 2646 1975 1244 2357 1503 825 892 1168 877
0 7 403 519 1662 2106 2058 1986 2715 2841 2921 2940 2927 3295 3480 2891 2089 2047 1613 1271 1147 1371 1855 1552 2250 2646 2544 2954 2911 2630 2203 2148 2007 2920 2601 932 1694 2060 1552 1951 1432 971 768
17 67 163 473 513 1448 1999 2306 2419 2741 2678 2581 2670 2850 3048 3309 3251 2972 1927 2037 1637 1518 2460 2739 2757 2358 3025 2462 2782 2656 2832 2173 1714 2153 1477 1106 2445 2421 2545 1472 947 649 567
194 96 261 460 545 618 1246 1770 2222 2461 2388 2499 2794 2959 2924 2783 2709 2373 2536 2093 1865 1976 3162 2932 2227 2544 2326 2571 2720 2753 1847 2514 2107 1800 2257 1572 1305 2454 1313 1149 716 604 595
316 231 272 386 732 804 811 907 1321 1581 2026 1737 1630 2011 2575 2875 2747 3115 2572 1867 2844 1968 2493 2676 2594 2377 2591 2885 3004 2579 2082 2506 2127 2025 2373 2680 1748 2051 1965 2315 2638 1109 825
208 211 235 311 585 975 1172 1192 935 940 1239 1785 1997 2225 1493 2331 2221 3018 2745 2647 2172 2917 2368 2305 2369 2655 2900 2741 3172 2847 2249 2579 1806 1573 2273 2153 1371 1384 2707 1403 2586 1747 1732
135 185 239 272 470 577 936 1131 1315 1549 1616 1254 1192 1677 1844 1280 2214 2273 1889 2786 2771 1916 2142 2906 2735 2732 2823 2615 2953 2826 2361 2238 1829 1889 1861 1587 1885 1458 2402 2596 1636 1715 1997
174 184 216 238 356 410 764 1047 1339 1537 1694 1747 1855 1530 1248 1640 1651 2422 2500 2513 2556 1714 2108 2351 2257 2863 2474 2930 2550 2177 1891 1740 1549 1504 1788 1673 1575 2270 2454 2343 2007 1874 1899
77 168 269 356 428 782 1127 1376 1449 1406 1748 1694 1884 1895 1656 1540 1605 1403 1868 1963 2190 2390 2362 2354 2510 2360 2353 2276 2529 2303 1938 1900 1869 1652 1897 2042 1864 1986 2312 1857 1938 1312 1617
142 228 381 442 439 682 1266 1456 1458 1428 1726 1732 1752 1766 1806 1873 1405 1389 1302 1385 1331 1569 1774 1918 1830 2122 2167 2308 1917 1986 2047 2000 1944 1888 1758 1640 1751 1697 1969 1886 1729 1887 1165
136 213 323 384 474 723 1015 1106 1437 1617 1564 1731 1666 1701 1444 1072 1080 946 765 487 532 413 388 597 1117 1461 1697 1490 1846 1998 2249 2051 2042 1753 1550 1613 1587 911 1266 1486 1495 2017 1174
292 353 291 185 328 544 740 614 1131 1186 1428 1530 1618 1516 1417 931 894 766 607 554 435 317 330 295 226 465 663 698 836 819 2510 2240 2144 2379 1842 1744 1016 665 700 587 332 994 1977
54 240 127 351 315 352 193 144 345 737 809 896 921 1202 1086 956 817 635 631 448 250 221 379 277 343 496 796 368 72 25 1657 2045 2121 2280 1884 1593 1091 886 1256 160 127 150 329
29 22 23 4 37 14 38 13 34 64 380 601 576 734 919 765 665 734 454 346 359 351 242 256 468 461 529 16 19 1 284 1372 1372 1366 1483 1214 960 897 663 547 480 777 847
8 42 59 17 24 5 20 13 11 8 5 267 216 344 569 495 590 595 657 693 631 292 100 128 213 252 316 18 0 0 5 346 620 409 429 357 120 67 8 54 221 331 1151
83 85 59 52 18 3 30 12 7 9 6 28 219 263 549 586 729 707 615 585 553 506 531 427 198 144 496 101 0 0 55 281 463 473 199 39 45 8 0 23 167 260 403
134 70 62 80 55 50 46 3 13 17 9 218 44 199 410 642 675 642 658 582 649 748 542 91 14 7 3 110 1 1 93 431 374 390 101 10 0 1 1 1 90 127 491
13 57 55 67 107 62 58 35 0 38 34 51 58 106 308 327 625 838 826 838 853 748 388 151 5 7 7 1 1 1 1 18 440 182 308 102 0 0 2 2 0 4 1
0 51 63 70 57 139 79 46 0 22 56 48 108 129 74 145 488 590 521 345 542 831 449 259 209 55 0 0 0 0 0 0 14 2 0 0 0 0 0 1 1 1 2
38 118 122 104 107 45 170 64 7 1 8 14 16 44 1 29 116 145 122 50 13 9 26 82 148 109 15 1 0 0 0 0 0 0 0 0 0 0 0 0 0 3 9
90 183 118 154 198 206 204 100 0 0 6 0 0 0 0 0 0 12 107 92 27 0 8 10 14 15 14 0 0 0 0 0 0 0 0 0 0 0 1 2 2 3 12
185 173 149 134 175 166 163 53 0 0 6 4 2 0 6 11 3 0 4 0 0 1 1 0 0 0 0 1 0 0 0 0 1 0 1 0 0 0 0 0 0 1 0
CIN
-169 -203 -210 -87 -78 -70 -62 -38 -43 -43 -38 -25 -22 -11 -13 -16 -7 -7 -0 -0 -2 -0 -0 -0 -0 -0 -0 -0 -0 -0 -0 -32 -47 -2 -0 -0 -0 -0 -0 -0 -0 -0 -0
-169 -189 -151 -193 -118 -68 -63 -41 -23 -17 -20 -26 -20 -25 -23 -28 -23 -8 -0 -0 -0 -0 -1 -0 -0 -0 -0 -0 -0 -0 -0 -18 -65 -19 -7 -7 -1 -1 -0 -0 -0 -1 -0
-252 -196 -161 -115 -182 -145 -54 -20 -2 -2 -7 -6 -13 -11 -3 -7 -6 -1 -3 -2 -2 -0 -3 -7 -0 -0 -0 -0 -0 -0 -0 -0 -3 -2 -20 -9 -16 -0 -0 -0 -0 -0 -0
-38 -231 -181 -116 -102 -163 -54 -3 -0 -0 -6 -2 -0 -0 -14 -16 -34 -25 -14 -10 -11 -6 -2 -0 -0 -0 -0 -0 -0 -0 -0 -0 -0 -0 -0 -0 -2 -15 -7 -2 -0 -0 -0
-0 -209 -204 -132 -62 -56 -17 -1 -1 -0 -0 -0 -0 -3 -3 -5 -4 -5 -0 -2 -0 -12 -7 -0 -0 -0 -0 -0 -0 -0 -0 -0 -0 -0 -0 -0 -0 -0 -0 -0 -0 -0 -0
-0 -117 -146 -194 -60 -21 -13 -9 -0 -0 -0 -0 -0 -0 -0 -0 -0 -0 -0 -6 -18 -6 -1 -0 -0 -0 -0 -0 -0 -0 -0 -0 -0 -0 -0 -0 -0 -0 -0 -0 -0 -0 -0
-130 -191 -156 -133 -160 -61 -16 -0 -0 -0 -0 -0 -0 -0 -0 -0 -0 -0 -9 -0 -0 -0 -0 -0 -0 -0 -0 -0 -0 -0 -0 -0 -0 -0 -0 -0 -0 -0 -0 -0 -0 -0 -0
-59 -103 -83 -96 -128 -151 -78 -26 -0 -0 -0 -0 -0 -0 -0 -0 -0 -1 -4 -0 -0 -0 -0 -0 -0 -0 -0 -0 -0 -0 -0 -0 -0 -0 -0 -0 -0 -0 -0 -0 -0 -0 -0
-33 -48 -67 -67 -78 -80 -102 -109 -63 -36 -0 -6 -21 -1 -0 -0 -0 -0 -0 -28 -0 -0 -0 -0 -0 -0 -0 -0 -0 -0 -0 -0 -0 -0 -0 -0 -0 -0 -0 -0 -0 -0 -0
-22 -28 -46 -62 -66 -48 -37 -38 -85 -108 -70 -3 -0 -0 -33 -0 -2 -0 -0 -0 -2 -0 -0 -0 -0 -0 -0 -0 -0 -0 -0 -0 -0 -0 -0 -0 -1 -0 -0 -0 -0 -0 -0
-33 -29 -31 -41 -41 -53 -34 -29 -15 -7 -6 -46 -54 -0 -5 -54 -0 -5 -11 -0 -0 -6 -3 -0 -0 -0 -0 -0 -0 -0 -0 -0 -0 -0 -0 -1 -0 -0 -0 -0 -0 -0 -0
-26 -25 -22 -33 -31 -49 -25 -14 -5 -0 -0 -0 -0 -15 -51 -6 -45 -0 -0 -0 -0 -8 -1 -0 -1 -0 -0 -0 -0 -0 -0 -0 -0 -0 -0 -0 -0 -0 -0 -0 -0 -0 -0
-51 -27 -28 -38 -41 -7 -0 -0 -0 -0 -0 -0 -0 -0 -7 -1 -5 -0 -0 -0 -0 -0 -0 -0 -0 -0 -0 -0 -0 -0 -0 -0 -0 -0 -0 -0 -0 -0 -0 -0 -0 -0 -0
-23 -17 -18 -22 -40 -8 -0 -0 -0 -0 -0 -0 -0 -0 -0 -0 -0 -2 -2 -0 -0 -0 -0 -0 -1 -0 -0 -0 -0 -0 -0 -0 -0 -0 -0 -0 -0 -0 -0 -0 -0 -0 -0
-30 -17 -10 -23 -19 -0 -0 -0 -0 -0 -0 -0 -0 -0 -0 -1 -0 -10 -15 -62 -68 -54 -26 -9 -0 -0 -0 -2 -0 -0 -0 -0 -0 -0 -0 -0 -2 -4 -1 -0 -0 -0 -0
-14 -6 -10 -64 -18 -0 -0 -3 -0 -0 -0 -0 -0 -0 -0 -3 -0 -1 -8 -18 -42 -42 -17 -29 -16 -1 -5 -2 -6 -29 -0 -0 -1 -0 -0 -0 -11 -30 -18 -14 -38 -10 -0
-62 -8 -36 -13 -22 -0 -5 -28 -12 -4 -0 -0 -0 -0 -0 -0 -0 -0 -0 -5 -16 -23 -2 -5 -5 -0 -0 -12 -92 -196 -0 -0 -0 -0 -0 -0 -0 -22 -0 -115 -108 -64 -27
-44 -0 -0 -0 -7 -16 -37 -17 -78 -58 -6 -0 -0 -0 -0 -0 -1 -0 -0 -4 -0 -1 -11 -16 -6 -7 -0 -91 -177 -0 -39 -0 -0 -0 -0 -0 -0 -0 -13 -15 -20 -5 -0
-0 -0 -0 -4 -0 -0 -5 -0 -0 -42 -0 -0 -0 -1 -1 -50 -54 -0 -0 -0 -0 -12 -42 -7 -2 -0 -19 -180 -0 -0 -10 -2 -4 -2 -24 -24 -78 -56 -14 -72 -15 -7 -0
-3 -0 -0 -2 -15 -6 -0 -0 -0 -0 -0 -33 -0 -9 -0 -25 -2 -0 -0 -0 -0 -0 -0 -0 -1 -0 -0 -12 -0 -0 -4 -2 -0 -0 -12 -79 -60 -84 -0 -25 -15 -7 -15
-16 -4 -4 -3 -8 -4 -0 -0 -10 -24 -7 -1 -35 -1 -2 -2 -1 -0 -0 -5 -0 -0 -0 -85 -128 -111 -0 -2 -0 -0 -1 -2 -1 -0 -10 -99 -0 -1 -0 -0 -14 -28 -27
-12 -15 -15 -10 -9 -8 -1 -0 -0 -14 -14 -6 -8 -11 -0 -0 -0 -0 -0 -0 -0 -0 -4 -97 -85 -0 -0 -0 -0 -0 -0 -13 -0 -6 -0 -3 -0 -0 -0 -0 -0 -29 -0
-0 -8 -7 -2 -12 -5 -3 -10 -0 -9 -5 -3 -2 -6 -33 -14 -0 -2 -0 -0 -0 -0 -0 -2 -11 -63 -0 -0 -0 -0 -0 -0 -0 -6 -0 -0 -0 -0 -0 -0 -0 -0 -0
-25 -1 -1 -6 -9 -44 -0 -2 -20 -0 -22 -29 -22 -6 -4 -36 -13 -0 -5 -44 -67 -78 -34 -4 -1 -10 -36 -0 -0 -0 -0 -0 -0 -0 -0 -0 -0 -0 -0 -0 -0 -0 -35
-24 -7 -0 -0 -0 -5 -4 -7 -0 -0 -33 -0 -0 -0 -0 -0 -0 -11 -0 -7 -9 -0 -2 -0 -0 -0 -0 -0 -0 -0 -0 -0 -0 -0 -0 -0 -0 -0 -0 -0 -0 -0 -43
-15 -10 -0 -0 -1 -4 -1 -24 -0 -0 -10 -0 -0 -0 -0 -0 -0 -0 -0 -0 -0 -0 -0 -0 -0 -0 -0 -0 -0 -0 -0 -0 -0 -0 -0 -0 -0 -0 -0 -0 -0 -0 -0
Wind_Speed
11 9 6 9 14 16 17 18 19 18 15 14 14 13 12 11 11 9 12 12 12 14 13 11 9 9 10 10 11 10 10 9 8 8 8 8 10 11 10 10 11 11 9
11 10 8 4 12 17 18 19 19 19 17 14 12 12 12 12 12 12 14 14 15 15 13 13 11 13 9 10 10 11 9 9 9 8 8 9 11 12 12 12 11 12 10
12 12 12 11 7 17 16 16 17 18 19 16 12 11 11 10 11 11 12 14 16 16 16 15 13 11 11 9 11 11 13 9 10 12 8 6 7 6 5 11 10 12 10
12 12 13 14 12 7 13 13 15 17 19 19 15 16 14 14 13 13 12 12 17 17 16 16 14 12 9 10 11 11 11 9 7 5 9 9 2 2 5 6 5 6 8
13 13 13 12 11 2 8 11 12 14 16 16 18 15 17 13 12 12 14 14 13 17 18 17 17 15 11 11 12 11 12 10 9 8 5 9 9 9 7 10 7 8 8
11 12 11 10 9 7 4 6 9 14 15 16 20 18 18 16 14 14 13 12 13 14 17 18 16 16 14 14 13 14 14 12 10 8 8 9 8 6 7 8 11 12 10
9 10 10 10 7 6 6 6 7 13 15 18 19 20 18 18 16 15 14 15 13 13 15 18 16 15 15 15 14 14 13 13 12 12 11 12 8 8 7 9 12 12 11
9 9 9 9 8 6 3 5 6 5 6 14 18 18 19 13 13 14 12 14 14 15 15 17 18 19 18 17 15 10 13 13 12 14 12 9 9 7 11 12 12 12 11
10 10 10 9 8 7 6 6 6 7 8 6 4 12 15 18 15 17 15 11 15 14 16 18 18 19 19 18 16 14 15 12 13 13 13 10 10 8 10 9 8 10 11
10 9 9 9 9 8 8 8 8 10 9 10 9 9 8 15 15 15 18 18 17 15 12 17 19 19 19 18 17 14 15 15 13 12 13 12 10 11 8 10 8 9 9
13 11 11 11 12 10 10 9 9 10 10 10 10 11 10 8 14 13 16 16 16 11 15 16 18 19 19 19 17 17 16 17 16 15 13 15 14 10 9 8 9 9 8
14 14 13 14 13 11 10 11 10 12 12 11 10 10 12 12 10 16 15 15 17 16 15 16 17 18 18 17 19 19 17 18 17 16 16 15 11 13 12 9 11 10 9
14 14 14 13 15 13 12 11 12 10 10 10 12 11 12 11 13 14 13 14 16 16 18 18 17 18 15 16 15 17 18 17 17 17 16 14 14 11 9 11 8 9 8
14 15 15 14 14 15 12 12 12 11 10 10 11 13 13 9 7 10 11 11 12 11 13 15 13 15 16 14 15 17 17 16 15 15 14 15 14 13 13 10 11 10 10
17 19 17 16 15 15 9 10 12 11 9 11 11 12 8 5 4 6 6 7 8 9 11 14 13 14 14 11 14 17 18 17 15 14 15 15 11 11 11 10 12 10 10
17 19 17 14 13 13 8 8 9 10 10 10 12 10 9 8 5 6 6 5 5 7 9 9 13 13 12 10 9 14 14 13 13 13 15 14 11 10 10 8 6 8 10
14 16 17 15 10 8 5 6 9 10 5 5 5 9 6 5 3 5 8 7 6 7 8 11 11 11 11 7 9 13 13 14 14 12 14 12 9 10 13 11 8 10 10
12 13 11 13 11 8 7 7 8 8 7 7 5 4 6 6 5 4 6 8 7 8 7 8 8 10 9 8 7 5 7 8 10 6 10 9 8 7 6 5 7 13 14
7 7 8 7 7 9 8 7 8 7 10 8 7 4 1 1 5 5 5 5 7 7 7 6 7 7 10 9 9 7 4 10 10 8 7 5 4 4 1 2 8 12 12
5 8 10 5 6 6 4 6 9 8 8 9 7 6 3 2 3 5 4 2 3 4 5 7 8 12 11 10 9 8 6 7 5 8 7 8 4 9 6 3 9 11 13
3 5 7 6 6 6 7 6 6 6 6 6 6 6 3 2 2 3 2 3 3 8 10 9 8 6 8 5 4 11 8 7 6 7 6 4 9 11 9 9 7 5 5
2 4 6 9 6 6 4 8 10 8 7 6 4 4 5 4 3 5 4 3 4 8 8 8 6 6 7 8 8 8 6 4 5 4 2 4 8 10 11 8 11 11 4
3 2 3 5 7 8 7 7 9 8 7 6 6 6 6 6 6 6 4 5 5 7 8 6 5 4 5 7 9 10 9 9 4 4 5 6 8 8 8 9 7 7 6
4 5 4 2 5 6 8 6 8 8 6 6 6 4 4 4 4 1 3 5 5 5 4 4 5 6 6 6 5 6 5 7 6 6 4 0 5 3 3 5 7 6 6
4 5 6 4 4 4 1 4 8 7 5 4 4 4 4 4 2 5 7 7 8 7 5 5 5 5 6 6 8 8 6 6 6 3 4 3 3 4 4 5 4 5 5
3 5 5 2 3 3 3 4 5 6 6 5 5 5 4 4 4 4 6 11 9 9 9 10 9 8 10 9 7 7 7 5 4 5 1 2 1 2 1 2 4 5 4
Wind_Direction
50 31 321 234 205 202 201 200 197 191 186 193 196 199 205 199 204 212 224 202 206 208 206 227 194 217 225 216 198 199 211 208 222 228 233 245 237 248 252 245 243 256 239
38 33 24 312 256 207 202 200 202 196 196 202 198 201 197 201 207 200 200 209 207 209 214 221 223 204 221 225 219 211 215 214 204 224 236 236 223 223 229 245 254 258 261
25 20 15 358 298 226 192 200 199 201 202 209 202 201 205 213 205 207 207 206 213 211 210 209 228 218 212 220 212 219 225 223 206 210 246 230 239 277 248 217 241 256 251
29 25 16 14 12 203 185 200 203 208 204 202 205 206 207 203 204 206 209 208 210 215 213 217 213 224 231 214 227 213 211 241 227 214 233 245 249 115 306 296 239 239 248
16 22 21 19 15 73 202 194 204 212 214 207 221 200 215 210 206 210 208 206 202 216 217 214 219 216 209 231 230 230 223 208 223 234 230 230 233 239 252 260 269 247 228
12 15 21 20 23 10 274 206 197 212 215 211 212 222 211 222 209 203 206 207 212 203 215 217 217 218 219 211 219 222 229 228 234 221 229 240 230 219 227 244 264 262 263
10 7 8 13 10 23 341 284 230 217 219 216 217 216 222 216 224 203 208 204 207 212 201 211 211 215 219 220 212 214 216 217 224 225 237 232 229 233 245 246 261 270 268
358 358 358 356 355 341 317 271 268 267 268 235 224 221 220 222 219 218 227 216 214 204 205 199 214 215 217 219 223 211 217 213 216 225 232 249 243 234 237 242 260 267 269
343 345 342 347 335 323 309 260 249 245 233 233 237 234 227 221 223 218 214 236 232 213 201 202 204 217 217 217 216 225 218 218 216 220 226 233 246 236 245 263 275 262 267
327 338 330 326 320 307 293 280 262 255 252 242 228 224 238 228 225 225 226 221 225 231 213 215 213 210 213 215 217 222 222 215 216 221 217 221 240 243 231 235 247 236 244
326 326 319 312 305 296 291 284 279 272 258 238 239 237 221 226 226 228 236 235 231 218 230 227 222 219 214 213 213 220 229 216 223 229 217 222 222 234 231 229 233 229 228
319 316 315 309 303 294 288 285 286 281 274 270 262 237 242 244 238 243 239 234 230 224 216 230 233 232 223 216 216 221 217 225 226 225 228 225 222 212 229 226 229 232 232
319 318 315 311 300 294 289 286 284 286 260 254 259 254 241 243 241 246 255 245 238 236 229 217 224 229 230 227 222 227 229 226 226 227 228 224 224 226 216 218 215 223 234
323 315 308 302 294 289 287 293 292 286 262 256 255 254 250 228 229 228 241 244 249 255 251 247 243 237 233 228 234 228 223 223 226 228 230 228 224 220 215 215 214 233 226
326 318 312 310 296 285 284 289 292 283 273 265 262 252 220 138 164 197 224 233 238 255 258 256 251 245 244 240 232 233 226 219 218 221 229 229 225 222 224 210 211 216 218
338 334 323 311 308 307 307 310 313 309 287 297 263 215 160 151 177 239 256 247 242 255 249 254 244 245 249 234 211 239 238 228 214 214 221 225 211 217 205 219 269 232 228
352 359 358 338 322 343 347 350 351 335 9 347 292 177 147 203 224 244 248 232 216 222 239 234 247 249 246 191 239 230 236 230 221 217 216 209 211 215 210 204 234 241 248
350 350 3 9 343 350 357 355 6 355 344 358 17 128 143 166 177 227 231 226 229 231 223 238 239 241 232 175 206 253 250 236 235 219 213 200 189 199 213 182 211 232 235
3 354 6 11 332 355 343 359 15 4 359 13 4 22 231 12 17 314 263 199 200 197 207 227 228 218 243 199 200 181 235 248 228 205 189 140 124 91 43 262 234 244 240
350 356 339 15 4 351 337 16 18 8 345 350 3 347 40 9 252 254 246 159 171 187 210 203 204 237 229 196 205 181 244 219 213 187 167 166 115 105 158 227 228 252 247
343 8 357 340 3 335 360 20 36 10 330 340 351 340 48 80 251 205 229 177 116 80 73 78 54 39 20 65 185 183 235 207 195 186 196 161 149 176 191 206 260 246 278
356 35 16 340 15 7 25 13 15 346 338 346 8 23 18 19 43 75 88 81 107 92 80 90 76 55 57 60 66 98 88 22 207 189 209 142 133 174 202 206 237 249 263
282 52 17 304 356 5 26 11 1 337 347 354 3 18 21 10 25 38 43 89 77 99 106 107 98 101 105 92 79 78 76 58 75 57 73 104 151 176 197 221 248 209 200
276 314 275 277 113 18 339 9 349 339 353 6 8 9 42 11 22 40 66 73 66 69 57 92 105 116 116 109 111 107 129 124 145 155 165 45 298 261 232 198 204 212 231
236 290 296 343 37 146 262 358 354 340 358 24 14 358 52 19 36 36 12 33 52 17 19 52 61 64 88 67 48 31 35 28 47 299 164 189 223 234 228 247 236 261 255
213 290 270 336 12 42 55 24 7 356 351 10 33 28 41 42 39 29 102 55 45 32 38 34 27 80 73 94 78 65 57 36 335 232 223 146 358 330 25 347 335 312 291